{"data":{"norad_id":46808,"epoch":"2026-05-25T04:04:01.464960Z","epoch_age_seconds":56319,"freshness":"FRESH","line1":"1 46808U 20076B   26145.16946140  .00002244  00000+0  16736-3 0  9997","line2":"2 46808  34.9938 231.2742 0000911 211.9729 148.0924 15.02593560304761","mean_motion":15.0259356,"eccentricity":9.11e-5,"inclination_deg":34.9938,"raan_deg":231.2742,"arg_perigee_deg":211.9729,"mean_anomaly_deg":148.0924,"bstar":0.00016736,"rev_number":30476,"period_min":95.834298664238,"perigee_km":558.27040487844,"apogee_km":559.5343334515,"semimajor_km":6937.039369165,"source":"CELESTRAK","updated_at":"2026-05-25T13:37:56.365254Z"}}